Wind_Speed
1 1 1 2 2 3 5 5 5 6 6 5 5 5 5 5 6 6 7 7 7 7 8 8 8 8 8 9 9 9 9 9 9 9 9 10 10 10 10 10 10 10 10
2 2 3 4 4 5 6 7 7 7 7 6 6 6 6 7 7 7 8 8 8 9 9 9 9 10 10 10 10 10 10 10 10 10 11 11 11 11 11 11 11 11 11
4 4 4 5 5 6 7 7 7 7 7 7 7 7 7 7 8 8 9 9 9 10 10 10 11 11 11 11 12 11 11 11 12 12 12 12 12 12 13 13 12 12 13
5 5 5 6 7 7 8 8 8 8 8 8 8 8 8 9 9 9 10 10 11 11 12 11 12 12 12 12 12 13 12 12 13 13 14 13 13 13 14 14 14 14 15
6 6 6 7 7 8 10 10 10 10 10 9 9 9 10 10 11 11 11 12 12 12 13 13 13 13 14 13 13 13 14 14 14 14 15 15 15 15 15 15 16 15 15
7 7 7 8 8 9 10 11 10 11 11 11 11 11 11 12 12 12 12 13 13 13 14 14 15 15 15 15 15 15 15 16 16 15 16 16 17 16 16 16 17 17 16
8 8 8 8 9 9 10 10 11 11 12 12 12 13 13 13 13 13 13 14 14 15 15 15 16 17 17 16 16 16 16 17 17 17 17 18 18 17 17 17 18 18 18
9 10 10 10 10 10 11 12 12 12 13 13 14 14 15 15 14 15 15 16 16 16 17 17 17 18 17 17 17 17 18 19 19 19 19 19 19 19 18 18 19 19 19
10 10 11 11 11 12 13 13 13 13 14 15 15 15 16 16 16 16 17 17 18 18 18 18 18 19 19 19 19 19 19 19 20 20 20 20 20 20 20 19 19 19 20
11 11 12 12 12 13 13 13 14 15 15 16 16 16 17 17 18 18 18 18 19 19 19 19 20 20 20 20 20 20 20 20 20 20 21 21 21 22 21 21 20 20 21
12 13 13 13 13 14 14 15 16 17 17 16 17 17 17 18 19 19 20 20 20 20 21 21 21 22 22 22 22 22 22 21 21 21 21 22 22 23 23 23 22 22 22
14 14 14 14 13 14 15 16 17 17 18 17 17 18 19 19 20 21 21 22 22 22 22 23 23 23 23 23 23 23 23 23 23 22 22 22 23 24 24 24 24 24 24
15 15 16 15 14 15 16 17 17 18 18 18 18 19 20 21 21 22 23 23 23 23 24 24 24 23 23 23 23 23 24 24 24 25 24 24 24 25 25 26 26 26 26
16 15 16 16 15 16 16 17 18 18 18 18 19 20 21 22 23 23 24 24 24 24 24 24 24 24 24 25 25 24 25 26 26 25 25 25 25 26 26 26 27 28 28
16 16 17 17 17 17 17 18 18 18 19 19 20 21 22 23 24 24 24 24 24 25 25 25 24 25 25 26 26 26 26 27 27 27 26 26 26 27 27 28 28 28 29
16 17 17 17 18 17 18 18 19 19 20 20 21 22 24 24 24 24 24 25 25 25 24 25 25 26 26 26 27 27 27 27 27 27 27 26 26 27 28 29 29 29 30
17 17 18 17 17 18 18 18 19 20 21 21 22 23 24 24 25 26 25 25 25 24 25 25 25 26 27 27 28 28 28 27 27 26 27 27 27 28 28 29 29 30 31
18 18 18 17 17 18 18 19 20 20 21 22 23 23 24 25 25 25 25 25 25 25 24 25 25 26 26 27 28 28 28 27 26 26 27 27 27 28 28 29 29 30 31
19 19 19 19 19 19 19 20 21 21 22 22 23 24 24 24 24 24 25 24 24 24 24 24 25 26 26 27 27 27 26 27 27 27 27 27 28 28 28 29 30 30 31
19 20 20 20 21 20 20 21 22 22 23 22 23 23 24 24 24 25 24 24 24 24 24 25 25 25 25 25 26 26 26 26 27 27 27 27 28 28 28 29 29 30 30
20 20 20 20 21 20 20 21 22 23 23 23 23 24 24 24 25 25 24 24 24 24 25 25 25 24 24 25 25 25 25 26 26 26 26 27 27 28 28 29 30 30 30
19 19 20 21 21 21 21 22 23 23 24 24 24 25 25 24 24 24 24 24 23 23 23 23 23 23 23 23 23 23 24 25 25 26 26 27 27 28 28 29 29 29 30
20 20 21 21 21 22 23 24 23 23 24 24 24 24 24 24 24 24 23 22 23 23 23 23 23 24 24 24 24 24 24 24 25 25 26 26 27 27 28 28 29 29 30
21 21 21 21 22 23 23 23 23 23 23 24 24 24 24 24 23 23 23 23 23 23 23 24 24 24 25 25 25 24 24 24 24 23 25 26 27 27 27 28 29 30 30
21 21 21 21 23 24 24 23 23 24 24 24 25 25 24 24 24 24 24 23 23 23 23 23 24 24 24 23 24 24 24 24 24 24 25 26 27 28 28 28 28 29 30
21 21 22 22 23 24 25 24 25 24 24 24 24 24 23 24 24 24 24 24 24 24 24 24 23 23 23 23 24 25 25 24 24 25 25 26 27 27 27 27 28 28 29
Wind_Direction
283 291 263 315 291 290 277 269 271 278 282 283 291 297 302 306 309 310 311 310 307 305 305 299 295 291 287 285 283 280 276 272 269 267 265 263 262 260 259 258 258 256 254
281 288 292 303 307 303 285 273 275 280 282 286 292 298 302 306 308 310 309 309 307 304 301 296 292 289 286 283 280 278 276 273 270 266 264 263 262 261 259 257 257 257 255
277 288 290 291 295 293 283 279 279 283 285 289 294 299 302 303 303 305 307 307 305 301 298 295 291 289 287 286 283 279 276 274 272 269 265 262 262 261 260 258 257 256 255
276 285 289 291 290 283 278 278 283 286 287 288 291 296 298 299 298 298 302 304 303 300 296 294 291 289 288 287 286 282 277 275 273 270 267 265 264 262 260 259 258 259 257
279 282 285 289 285 280 279 280 283 285 288 288 288 290 292 294 294 294 297 299 300 300 299 297 292 287 286 284 285 284 279 275 274 272 267 265 264 263 261 259 259 260 256
283 283 283 286 285 283 283 284 285 287 287 289 288 288 289 292 293 294 295 296 296 297 298 298 295 290 288 285 283 282 279 275 273 273 269 266 264 262 261 261 259 257 256
291 290 286 286 288 288 286 287 287 288 288 287 288 287 288 291 294 294 294 295 293 292 294 294 293 293 289 285 283 280 277 275 273 273 271 266 264 263 261 261 259 256 255
299 297 292 290 287 286 285 288 288 290 289 286 285 287 288 289 291 293 294 294 292 291 290 290 291 291 287 286 283 281 279 274 272 271 271 267 265 264 262 262 259 258 256
297 296 291 291 284 282 288 287 288 290 290 287 285 285 285 288 291 293 293 293 292 291 290 290 289 289 286 285 283 281 280 276 273 271 270 268 265 264 262 262 261 258 257
289 289 289 288 286 285 286 288 290 290 290 288 286 286 286 289 290 291 293 292 292 291 291 290 288 287 284 284 283 280 280 277 275 272 270 268 266 264 262 261 260 259 258
285 285 284 285 285 284 284 287 289 290 291 288 286 286 287 288 289 290 292 292 292 291 290 289 288 286 284 284 283 280 280 278 275 272 269 269 268 265 263 261 260 259 258
287 284 284 283 284 284 283 286 287 288 290 288 288 288 288 288 290 291 292 293 292 290 289 288 287 285 282 283 283 281 278 278 277 274 270 269 267 265 263 262 261 260 259
284 284 283 280 283 286 286 286 287 289 289 289 289 289 289 290 291 291 290 291 290 289 289 288 287 285 282 283 282 281 279 278 279 277 272 270 267 265 265 264 262 261 260
282 281 280 280 283 286 286 286 287 288 288 288 289 290 290 291 290 290 289 288 288 287 287 287 286 285 283 282 281 280 279 278 278 277 274 271 268 266 265 264 262 261 260
281 282 283 280 282 284 284 286 287 287 285 286 288 290 292 291 290 289 290 288 287 286 285 285 285 285 283 283 280 278 278 278 278 278 276 273 269 266 265 264 263 261 260
280 280 282 280 281 283 283 284 285 287 287 287 289 290 291 290 290 289 288 288 288 287 287 286 285 285 284 283 282 281 279 279 277 278 277 274 271 269 268 265 263 262 262
279 280 281 280 280 279 281 283 285 286 287 287 289 290 290 290 291 289 288 288 289 288 288 288 287 286 285 285 284 282 281 279 277 276 276 274 272 271 270 267 265 264 262
278 279 279 281 282 282 282 283 284 287 288 287 288 289 290 291 292 290 290 290 290 289 289 288 289 288 287 286 285 283 281 279 277 277 275 273 272 271 270 269 267 265 264
275 275 277 279 283 284 285 286 286 288 289 289 287 288 290 290 289 290 291 292 291 289 289 290 289 288 288 288 287 285 282 279 277 277 276 274 271 270 269 269 269 267 265
273 273 275 278 282 286 288 290 288 288 289 290 289 289 291 292 292 292 293 292 291 289 290 290 291 289 288 289 288 286 283 280 277 276 276 275 273 270 269 270 269 268 266
272 274 276 278 283 287 291 291 290 288 288 291 291 290 292 294 294 293 293 292 291 291 291 291 290 290 291 289 288 287 285 283 280 278 277 276 274 271 271 270 270 268 266
275 274 276 280 283 288 291 292 292 290 290 292 292 291 292 294 295 295 295 293 292 294 295 293 291 292 293 291 291 289 287 285 284 279 277 276 274 273 272 271 269 267 266
274 275 278 280 284 287 289 290 292 293 291 291 291 291 291 292 292 295 297 297 296 296 294 293 293 292 292 291 291 290 287 285 285 282 280 278 275 274 273 272 270 268 267
275 276 279 282 284 286 288 290 293 294 292 291 291 291 289 291 294 296 296 296 296 295 293 292 292 292 291 291 290 290 288 286 285 283 281 279 277 276 276 273 271 268 267
275 278 281 282 285 287 291 293 293 295 294 292 290 288 289 292 294 296 295 296 296 295 294 294 294 293 292 292 291 290 289 286 286 284 283 281 279 278 276 274 272 270 269
277 279 281 284 287 289 292 294 295 294 293 292 291 289 290 292 292 293 295 296 296 295 295 294 295 294 293 293 292 292 289 286 286 284 283 284 281 279 277 275 273 271 270
Height
5897 5896 5896 5895 5895 5894 5894 5894 5894 5893 5892 5892 5891 5890 5889 5889 5888 5887 5886 5885 5885 5884 5883 5883 5882 5882 5882 5881 5881 5880 5880 5880 5880 5880 5880 5879 5879 5879 5880 5880 5879 5879 5879
5896 5895 5895 5894 5894 5894 5893 5893 5892 5892 5891 5890 5889 5888 5888 5887 5886 5885 5884 5884 5883 5882 5881 5881 5880 5880 5879 5879 5879 5878 5878 5878 5878 5878 5877 5877 5877 5877 5877 5877 5877 5877 5877
5895 5894 5893 5893 5893 5892 5892 5891 5891 5890 5889 5888 5887 5887 5886 5885 5884 5883 5882 5881 5881 5880 5879 5879 5878 5877 5877 5876 5876 5876 5875 5875 5875 5875 5875 5875 5875 5875 5875 5875 5875 5875 5875
5893 5893 5892 5892 5891 5890 5890 5889 5889 5888 5887 5887 5886 5885 5884 5883 5882 5881 5880 5879 5878 5878 5877 5876 5876 5875 5874 5874 5873 5873 5873 5872 5872 5872 5872 5872 5872 5872 5872 5872 5872 5872 5872
5892 5891 5891 5890 5889 5889 5888 5887 5887 5886 5885 5885 5884 5883 5882 5881 5880 5879 5878 5877 5876 5875 5874 5874 5873 5872 5872 5871 5870 5870 5869 5869 5869 5869 5869 5869 5869 5869 5869 5869 5869 5869 5869
5890 5889 5889 5888 5887 5886 5886 5885 5884 5884 5883 5882 5881 5880 5879 5878 5877 5876 5875 5874 5873 5872 5872 5871 5870 5869 5868 5868 5867 5866 5866 5865 5865 5865 5865 5865 5865 5866 5866 5866 5866 5866 5866
5888 5887 5886 5886 5885 5884 5883 5882 5881 5881 5880 5879 5878 5877 5876 5875 5874 5873 5872 5871 5870 5869 5868 5867 5866 5865 5864 5864 5863 5863 5862 5861 5861 5861 5861 5861 5862 5862 5862 5862 5862 5862 5863
5886 5885 5884 5883 5883 5882 5881 5880 5879 5878 5877 5876 5875 5874 5873 5872 5871 5870 5868 5867 5866 5865 5865 5864 5862 5862 5861 5860 5859 5858 5858 5857 5857 5857 5857 5857 5858 5858 5858 5858 5859 5859 5859
5884 5883 5882 5881 5880 5879 5878 5877 5876 5875 5874 5872 5871 5871 5870 5869 5867 5866 5865 5864 5863 5862 5861 5860 5858 5858 5857 5856 5855 5854 5854 5853 5852 5852 5852 5853 5853 5853 5853 5854 5854 5855 5855
5881 5880 5879 5878 5877 5876 5875 5874 5873 5872 5870 5869 5868 5867 5866 5865 5864 5862 5861 5860 5859 5857 5856 5855 5854 5853 5852 5851 5850 5850 5849 5848 5847 5847 5847 5847 5848 5848 5848 5848 5849 5849 5850
5879 5878 5877 5875 5874 5873 5872 5871 5869 5868 5867 5865 5864 5863 5862 5861 5860 5858 5857 5855 5854 5853 5852 5851 5849 5848 5847 5846 5845 5844 5844 5843 5842 5842 5842 5842 5842 5842 5843 5843 5844 5844 5845
5875 5874 5874 5872 5871 5870 5869 5867 5866 5865 5863 5862 5861 5860 5858 5857 5856 5854 5852 5851 5849 5848 5847 5846 5844 5843 5842 5841 5840 5839 5838 5837 5837 5836 5836 5836 5836 5836 5836 5837 5838 5838 5839
5871 5871 5870 5869 5868 5867 5866 5864 5862 5861 5859 5858 5857 5856 5854 5853 5851 5850 5848 5846 5845 5843 5842 5840 5839 5838 5837 5835 5834 5833 5832 5831 5831 5830 5830 5830 5830 5830 5830 5831 5832 5832 5832
5868 5867 5867 5866 5865 5863 5862 5861 5859 5857 5856 5855 5853 5852 5850 5848 5847 5845 5843 5841 5840 5838 5836 5835 5833 5832 5831 5830 5829 5828 5827 5826 5825 5824 5824 5824 5823 5823 5824 5824 5825 5825 5826
5864 5864 5863 5862 5861 5860 5858 5857 5855 5853 5852 5851 5849 5847 5845 5843 5842 5840 5838 5836 5834 5832 5830 5829 5827 5826 5825 5824 5822 5821 5821 5819 5818 5818 5817 5817 5816 5817 5817 5817 5818 5819 5819
5861 5860 5859 5858 5857 5856 5855 5853 5851 5850 5848 5846 5845 5843 5841 5839 5837 5834 5832 5830 5828 5826 5825 5823 5821 5820 5818 5817 5816 5815 5814 5813 5812 5811 5810 5809 5810 5810 5810 5810 5811 5811 5812
5858 5857 5856 5854 5853 5852 5850 5849 5847 5846 5844 5842 5840 5838 5836 5834 5832 5829 5827 5825 5823 5821 5819 5817 5815 5814 5812 5810 5809 5808 5807 5806 5805 5804 5803 5802 5802 5803 5803 5803 5803 5803 5804
5854 5853 5851 5850 5849 5848 5846 5845 5843 5841 5839 5837 5835 5833 5831 5829 5826 5824 5821 5819 5817 5815 5813 5812 5810 5808 5806 5804 5802 5801 5800 5799 5798 5797 5796 5796 5795 5795 5795 5795 5795 5795 5796
5850 5849 5847 5846 5845 5843 5842 5840 5838 5836 5834 5832 5830 5828 5826 5823 5821 5818 5816 5814 5811 5809 5807 5806 5804 5801 5799 5797 5796 5794 5793 5792 5791 5790 5789 5788 5788 5788 5788 5787 5787 5788 5788
5845 5844 5843 5842 5840 5838 5837 5835 5834 5832 5830 5828 5825 5823 5821 5818 5816 5813 5810 5808 5806 5804 5802 5800 5798 5795 5793 5791 5789 5788 5786 5784 5784 5783 5782 5781 5781 5780 5780 5780 5780 5780 5780
5841 5840 5839 5837 5835 5833 5832 5831 5829 5827 5825 5823 5820 5818 5816 5813 5811 5808 5805 5802 5800 5798 5796 5794 5792 5790 5788 5786 5784 5781 5779 5778 5777 5776 5775 5774 5774 5773 5773 5772 5772 5772 5772
5836 5835 5834 5833 5831 5829 5828 5826 5824 5822 5819 5817 5815 5812 5810 5808 5805 5803 5800 5797 5795 5793 5791 5789 5786 5784 5782 5780 5778 5776 5774 5772 5770 5769 5768 5767 5767 5766 5765 5765 5764 5764 5763
5831 5830 5830 5828 5827 5825 5823 5821 5818 5816 5813 5812 5809 5807 5805 5802 5800 5798 5795 5792 5790 5788 5785 5783 5781 5779 5777 5774 5772 5770 5768 5767 5765 5763 5762 5760 5759 5758 5757 5757 5756 5756 5755
5826 5825 5825 5824 5823 5820 5818 5815 5812 5811 5808 5806 5804 5802 5800 5797 5794 5792 5790 5787 5784 5782 5780 5778 5775 5773 5771 5769 5766 5764 5762 5760 5758 5757 5755 5753 5752 5751 5750 5749 5748 5748 5748
5821 5821 5820 5819 5817 5815 5813 5811 5808 5806 5804 5801 5799 5797 5795 5792 5790 5787 5785 5782 5779 5777 5774 5772 5769 5767 5765 5763 5760 5758 5756 5754 5752 5750 5749 5747 5745 5743 5742 5741 5740 5740 5739
5817 5816 5815 5813 5812 5810 5808 5806 5804 5801 5799 5797 5794 5791 5789 5787 5784 5782 5779 5776 5774 5771 5769 5766 5763 5761 5759 5756 5754 5752 5750 5747 5745 5743 5742 5740 5738 5736 5735 5733 5733 5732 5732